Regional Weather Roundup
Issued by NWS

Home | Current Version | Previous Version | Text Only | Print | Product List | Glossary On
Versions: 1 2 3 4 5 6 7 8 9 10 11 12 13 14 15 16 17 18 19 20 21 22 23 24 25 26 27 28 29 30 31 32 33 34 35 36 37 38 39 40 41 42 43 44 45 46 47 48 49 50
000
ASUS43 KDTX 200510
RWRMI
MICHIGAN HOURLY REGIONAL WEATHER ROUNDUP
NATIONAL WEATHER SERVICE DETROIT/PONTIAC MI
1200 AM EST SAT DEC 20 2014

NOTE: "FAIR" INDICATES FEW OR NO CLOUDS BELOW 12,000 FEET WITH NO
SIGNIFICANT WEATHER AND/OR OBSTRUCTION TO VISIBILITY.

MIZ047>049-052>055-059>063-066>070-074>076-081>083-200600-
SOUTHEAST LOWER MICHIGAN

CITY           SKY/WX    TMP DP  RH WIND       PRES   REMARKS
ADRIAN         CLOUDY    29  23  78 E3        30.28S
ALMA             N/A     18  17  98 CALM      30.27S
ANN ARBOR      CLOUDY    26  22  84 CALM      30.27S
BAD AXE        CLEAR     14  13  96 CALM      30.27F
DETROIT CITY   CLEAR     25  18  74 CALM      30.29R
DETROIT        MOCLDY    23  19  85 CALM      30.29F
FLINT          CLEAR     20  15  81 S3        30.28R
GROSSE ILE     CLOUDY    27  21  80 CALM      30.28S
HILLSDALE      MOCLDY    21  21  98 CALM      30.24F FOG
HOWELL         CLEAR     18  17  95 CALM      30.26S

CITY           SKY/WX    TMP DP  RH WIND       PRES   REMARKS
JACKSON        MOCLDY    22  18  85 CALM      30.26S
LAMBERTVILLE   CLOUDY    32  27  80 CALM      30.28S
LANSING        CLEAR     20  17  88 CALM      30.28R
LAPEER         NOT AVBL
MASON          CLEAR     21  19  93 CALM      30.26S
MONROE         CLOUDY    28  25  86 CALM      30.27F
MT. CLEMENS    CLEAR     23  23  97 NW2       30.26S
PONTIAC        CLEAR     20  17  88 CALM      30.26R
PORT HOPE        N/A     23  19  85 CALM      30.26F
PORT HURON     CLEAR     19  19 100 CALM      30.28S
TRI CITIES     CLEAR     22  18  85 S3        30.27F
YPSILANTI      CLOUDY    26  20  77 CALM      30.29S
$$
MIZ043>046-050>051-056>058-064>065-071>073-077>080-200600-
SOUTHWEST LOWER MICHIGAN

CITY           SKY/WX    TMP DP  RH WIND       PRES   REMARKS
BATTLE CREEK   MOCLDY    21  17  84 NE3       30.25F
BENTON HARBOR  CLOUDY    28  20  71 CALM      30.27S
BIG RAPIDS     CLEAR     17  16  96 CALM      30.25R
COLDWATER      MOCLDY    20  19  96 CALM      30.25F FOG
HOLLAND        PTCLDY    22  17  81 E3        30.28R
GRAND RAPIDS   PTCLDY    20  17  88 S7        30.27R
KALAMAZOO      CLEAR     23  20  88 SE3       30.26S FOG
MARSHALL       PTCLDY    19  18  95 CALM      30.26S
MUSKEGON       PTCLDY    23  17  78 CALM      30.28S
$$
MIZ016>042-200600-
NORTHERN LOWER MICHIGAN

CITY           SKY/WX    TMP DP  RH WIND       PRES   REMARKS
ALPENA         CLEAR     11   7  84 CALM      30.29F
BEAVER ISLAND  CLOUDY    13  12  93 CALM      30.27F
BELLAIRE       CLOUDY    25  22  88 CALM      30.27F
CADILLAC       CLEAR      9   6  88 CALM      30.22S
CHARLEVOIX     CLOUDY    25  22  89 CALM      30.29F
FRANKFORT      CLOUDY    28  25  87 CALM      30.26S
GAYLORD        CLOUDY     7   4  87 CALM      30.23F
GRAYLING       CLEAR      3   0  87 CALM      30.25S
HARBOR SPRINGS CLOUDY    16  14  90 NE5       30.27F
HOUGHTON LAKE  CLEAR     10   7  87 CALM      30.24F
MANISTEE       CLOUDY    25  19  80 E3        30.27S
OSCODA         CLEAR      9   7  92 CALM      30.27F
PELLSTON       CLEAR      4  -1  80 CALM      30.28F
TRAVERSE CITY  CLOUDY    28  20  71 CALM      30.26F
$$
MIZ007>008-015-200600-
EASTERN UPPER MICHIGAN

CITY           SKY/WX    TMP DP  RH WIND       PRES   REMARKS
KINROSS        PTCLDY     9   7  92 CALM      30.28S
MACKINAC ISLAN PTCLDY    17  16  98 CALM      30.27F
NEWBERRY       CLOUDY    21  20  96 CALM      30.26F
S. S. MARIE    PTCLDY    13   9  84 CALM      30.27F
$$
MIZ004>006-011>014-085-200600-
CENTRAL UPPER MICHIGAN

CITY           SKY/WX    TMP DP  RH WIND       PRES   REMARKS
MANISTIQUE     CLOUDY    26  21  82 SW3       30.26F
ESCANABA       MOCLDY    16  10  79 CALM      30.25F
MENOMINEE      CLEAR     16  12  86 CALM      30.25S
SAWYER-GWINN   CLEAR     16  14  93 CALM      30.22F
$$
MIZ001>003-009>011-084-200600-
WESTERN UPPER MICHIGAN

CITY           SKY/WX    TMP DP  RH WIND       PRES   REMARKS
IRON MOUNTAIN  CLOUDY    16  13  88 CALM      30.21F
HOUGHTON       CLOUDY    23  18  81 S5        30.20F
COPPER HARBOR    N/A     27  23  85 CALM      30.22F
IRONWOOD       CLOUDY    25  21  86 S3        30.16S
$$

ABBREVIATIONS USED IN REMARKS
   TC - TEMPERATURE IN CELSIUS
  WCI - WIND CHILL INDEX
   HX - HEAT INDEX
  VSB - VISIBILITY



USA.gov is the U.S. government's official web portal to all federal, state and local government web resources and services.